Retour au catalogue

Grifon-3

ActifScienceSSO
NORAD 67280·PAYLOAD·🇮🇷 Iran

Lancé Dec 28, 2025 depuis Vostochny Cosmodrome

Loading…

Prochains Passages (prochaines 24 heures)

TLE

FraisSource: Space-Track

Époque: Sep 13, 2026, 22:04 UTC

1 67280U 25313AJ  26256.91966773  .00003998  00000-0  17177-3 0  9991
2 67280  97.3926 330.3157 0014192  54.4964 305.7594 15.23161437 39459

Suivez Grifon-3 en temps réel avec AllMySat

Download on the App Store